Temp
8 8 7 6 6 5 4 3 3 3 2 2 1 0 -1 -1 -2 -2 -2 -2 -2 -2 -2 -1 -1 -1 -1 -1 -1 -0 1 2 2 3 3 3 4 5 5 6 6 6 7
7 7 6 6 5 4 3 3 2 2 1 0 -1 -1 -2 -3 -2 -3 -3 -3 -3 -3 -2 -2 -2 -2 -2 -2 -1 -1 -0 1 1 1 2 3 3 5 5 5 6 6 6
7 6 6 5 4 3 2 2 1 1 0 -1 -2 -2 -3 -3 -3 -3 -3 -2 -3 -3 -2 -2 -3 -2 -2 -2 -2 -1 -1 -0 1 1 1 2 3 4 4 5 5 5 6
6 5 4 3 3 2 1 1 1 -0 -2 -2 -2 -3 -2 -3 -3 -3 -3 -2 -2 -2 -2 -2 -2 -2 -2 -2 -2 -1 -1 -1 0 1 0 1 3 4 4 5 5 5 6
4 4 3 2 2 1 1 0 -0 -2 -3 -3 -2 -2 -2 -3 -2 -2 -2 -2 -2 -2 -2 -2 -2 -2 -2 -2 -1 -1 -1 -1 -1 0 -0 1 2 3 4 4 5 5 5
3 2 2 1 1 0 -0 -1 -3 -3 -3 -3 -2 -2 -2 -2 -2 -2 -2 -2 -2 -2 -2 -2 -2 -2 -2 -1 -1 -1 0 -1 -1 -0 -0 0 2 3 4 4 4 5 4
2 1 1 0 0 -1 -1 -2 -3 -3 -3 -3 -2 -2 -2 -1 -1 -1 -2 -2 -1 -1 -1 -2 -1 -1 -2 -1 -1 -2 -1 -0 0 -1 -0 1 1 3 3 3 3 5 5
1 1 0 -0 -1 -2 -3 -3 -3 -3 -3 -3 -2 -2 -2 -1 -0 -1 -0 -1 -1 -1 -2 -1 -2 -2 -2 -2 -1 -1 -0 -1 -1 -1 -0 1 2 3 3 3 4 5 5
1 0 -0 -1 -2 -2 -3 -3 -3 -3 -2 -2 -2 -1 -1 -0 -0 -0 -0 -0 -1 -1 -1 -1 -2 -2 -1 -1 -2 -1 -1 -1 -1 -0 0 0 1 3 3 3 4 4 4
-0 -1 -1 -2 -2 -3 -4 -3 -3 -3 -2 -2 -1 -1 -0 -0 -0 -0 -0 -0 -0 -1 -1 -1 -2 -1 -1 -1 -2 -1 -1 -1 -1 -0 -0 0 1 2 2 3 4 4 4
-1 -1 -1 -2 -3 -4 -3 -3 -2 -2 -2 -1 -1 -1 -1 -1 -1 -1 -1 -0 -0 -1 -1 -1 -1 -1 -1 -1 -1 -1 -0 -1 -0 -0 0 1 2 2 3 3 4 4 4
-1 -1 -2 -3 -4 -3 -3 -3 -2 -1 -2 -1 -1 -1 -1 -1 -1 -1 -1 -1 -0 -0 -1 -1 -0 -1 -1 -1 -1 -0 0 -0 -0 -0 1 2 1 2 2 3 3 3 3
-2 -2 -3 -4 -3 -3 -3 -2 -2 -2 -2 -1 -1 -2 -1 -2 -2 -1 0 1 1 -0 -1 -0 -1 -1 -1 -0 -0 -0 0 0 0 0 0 1 2 2 2 2 2 2 3
-2 -3 -4 -4 -4 -3 -3 -2 -2 -2 -2 -1 -2 -1 -2 -2 -2 -1 0 0 0 -0 -1 -0 -0 -0 -0 -1 -0 1 1 -0 0 0 1 2 2 2 2 2 2 2 2
-3 -3 -4 -4 -3 -3 -3 -2 -3 -3 -2 -2 -2 -2 -2 -2 -2 -1 -1 -1 -1 -1 -1 -1 -1 -1 -1 -1 -1 -1 0 0 -0 0 1 2 2 2 1 1 1 2 2
-3 -4 -4 -4 -4 -4 -3 -3 -3 -2 -2 -2 -2 -2 -2 -2 -2 -2 -1 -1 -1 -1 -1 -1 -1 -1 -1 -1 -1 -1 -1 -0 0 1 1 1 1 1 1 1 1 1 2
-4 -4 -4 -3 -4 -4 -4 -4 -3 -2 -2 -2 -2 -2 -3 -3 -3 -3 -2 -2 -2 -1 -2 -2 -1 -1 -1 -1 -0 -0 -0 -0 0 1 1 1 1 1 1 1 1 1 2
-4 -4 -4 -4 -4 -4 -4 -4 -3 -3 -3 -3 -3 -3 -3 -3 -3 -3 -3 -3 -2 -2 -2 -2 -2 -1 -1 -0 -0 -0 -0 -0 0 0 1 1 1 1 1 1 1 2 2
-4 -4 -5 -4 -4 -4 -4 -4 -3 -3 -3 -3 -3 -3 -4 -4 -4 -4 -4 -4 -4 -3 -3 -3 -2 -2 -1 -1 -1 -0 -1 -1 0 0 1 1 1 1 1 1 1 2 2
-4 -4 -4 -4 -4 -4 -4 -3 -3 -3 -3 -3 -3 -3 -4 -4 -5 -5 -5 -5 -4 -4 -4 -3 -3 -3 -2 -2 -1 -1 -1 -1 -1 0 0 0 0 1 1 1 1 2 2
-4 -4 -4 -4 -4 -4 -4 -4 -3 -4 -4 -4 -4 -4 -5 -5 -5 -5 -5 -5 -5 -4 -4 -4 -3 -3 -3 -2 -2 -1 -1 -1 -1 -1 -0 0 0 0 1 1 1 1 2
-4 -4 -4 -4 -4 -4 -4 -3 -3 -4 -4 -4 -4 -4 -5 -5 -6 -6 -6 -5 -5 -5 -4 -4 -4 -3 -3 -3 -2 -2 -1 -0 0 -0 0 -0 0 1 1 1 1 2 1
-4 -4 -4 -4 -4 -4 -3 -3 -3 -4 -4 -4 -4 -5 -5 -5 -6 -6 -6 -5 -5 -5 -4 -4 -4 -3 -3 -4 -3 -2 -1 -1 -0 -0 -0 -1 -0 1 1 1 1 1 1
-4 -5 -5 -4 -4 -4 -4 -4 -4 -4 -4 -4 -5 -5 -5 -5 -6 -6 -6 -6 -5 -5 -4 -4 -4 -4 -3 -3 -3 -2 -2 -1 -0 -0 0 0 0 1 1 1 1 1 1
-4 -5 -5 -5 -5 -4 -4 -4 -4 -4 -4 -4 -5 -5 -5 -5 -6 -6 -6 -6 -5 -5 -5 -4 -4 -3 -3 -2 -2 -1 -1 -0 -0 -0 -0 0 0 0 1 1 1 1 1
-5 -5 -5 -5 -5 -5 -4 -4 -4 -4 -4 -4 -5 -5 -5 -5 -6 -6 -6 -6 -5 -5 -5 -4 -4 -3 -1 -0 0 -0 0 1 0 -0 -0 0 -0 -0 0 0 0 1 1
Height
1514 1511 1507 1502 1496 1491 1485 1480 1475 1469 1464 1458 1452 1447 1442 1438 1434 1430 1427 1424 1421 1419 1419 1417 1415 1415 1413 1413 1414 1414 1414 1415 1412 1410 1415 1419 1422 1424 1426 1428 1430 1431 1434
1509 1504 1499 1494 1489 1484 1478 1473 1467 1461 1455 1449 1443 1438 1433 1429 1425 1422 1417 1415 1412 1410 1409 1407 1405 1406 1404 1404 1404 1403 1404 1405 1406 1402 1406 1409 1412 1415 1417 1420 1422 1424 1425
1502 1497 1493 1488 1482 1476 1470 1465 1459 1452 1445 1439 1434 1429 1424 1421 1417 1413 1409 1406 1402 1400 1399 1397 1396 1396 1394 1394 1393 1393 1395 1396 1396 1396 1396 1401 1403 1406 1408 1411 1413 1416 1417
1496 1491 1486 1480 1474 1468 1462 1456 1449 1443 1436 1430 1426 1421 1417 1412 1408 1403 1399 1395 1391 1389 1388 1387 1386 1385 1384 1384 1383 1384 1386 1386 1386 1387 1389 1392 1393 1396 1399 1402 1405 1408 1411
1490 1485 1479 1473 1467 1460 1454 1447 1440 1433 1427 1423 1417 1412 1408 1403 1397 1392 1388 1384 1381 1378 1377 1376 1376 1375 1375 1373 1373 1373 1376 1376 1375 1376 1380 1382 1384 1386 1389 1394 1397 1402 1405
1484 1479 1473 1467 1460 1453 1446 1439 1432 1426 1421 1415 1409 1403 1398 1392 1387 1382 1378 1374 1371 1369 1366 1366 1365 1365 1364 1364 1364 1365 1363 1364 1365 1367 1371 1373 1376 1380 1383 1387 1391 1395 1399
1478 1473 1467 1460 1453 1446 1439 1431 1425 1420 1413 1407 1401 1395 1388 1382 1376 1371 1367 1362 1359 1357 1355 1355 1353 1354 1355 1354 1353 1354 1355 1356 1356 1353 1360 1364 1369 1372 1376 1380 1386 1390 1394
1472 1466 1460 1454 1446 1439 1432 1425 1419 1413 1406 1399 1392 1386 1380 1374 1368 1362 1356 1351 1347 1345 1345 1344 1343 1344 1345 1346 1346 1346 1346 1347 1348 1348 1351 1357 1363 1368 1370 1375 1381 1386 1391
1466 1461 1455 1448 1440 1433 1425 1419 1413 1406 1398 1392 1386 1379 1372 1365 1359 1353 1348 1341 1335 1334 1334 1334 1333 1335 1336 1338 1339 1339 1339 1340 1341 1342 1344 1351 1358 1362 1367 1372 1376 1381 1386
1461 1455 1449 1443 1435 1427 1420 1414 1407 1400 1393 1387 1380 1374 1366 1359 1352 1345 1338 1331 1324 1324 1324 1325 1327 1328 1329 1330 1332 1333 1333 1335 1338 1341 1341 1345 1352 1357 1363 1368 1372 1377 1383
1457 1450 1444 1436 1429 1423 1416 1409 1401 1395 1388 1382 1375 1368 1361 1353 1343 1336 1329 1321 1316 1313 1315 1317 1320 1322 1323 1324 1326 1327 1327 1331 1334 1337 1341 1344 1348 1353 1358 1364 1370 1375 1381
1452 1445 1438 1430 1424 1419 1412 1404 1397 1390 1383 1376 1368 1361 1355 1347 1338 1328 1318 1309 1305 1302 1306 1311 1315 1317 1318 1318 1319 1317 1323 1326 1330 1334 1337 1340 1345 1350 1355 1362 1368 1373 1380
1447 1440 1433 1426 1421 1415 1407 1399 1392 1386 1380 1372 1366 1358 1350 1341 1331 1319 1305 1292 1290 1295 1301 1308 1312 1314 1315 1316 1317 1317 1319 1322 1325 1328 1333 1338 1344 1349 1355 1360 1366 1371 1377
1443 1436 1429 1423 1417 1411 1404 1397 1390 1383 1376 1370 1364 1356 1348 1339 1329 1318 1305 1294 1293 1297 1301 1306 1310 1313 1315 1316 1315 1314 1315 1317 1321 1325 1331 1338 1345 1349 1354 1359 1364 1369 1374
1439 1432 1426 1420 1414 1406 1401 1394 1388 1382 1376 1369 1363 1356 1348 1339 1330 1322 1313 1306 1302 1303 1306 1308 1310 1312 1314 1315 1316 1312 1314 1316 1321 1328 1333 1339 1344 1348 1352 1356 1360 1364 1369
1435 1430 1424 1417 1411 1404 1397 1389 1386 1380 1374 1369 1363 1356 1349 1342 1333 1325 1319 1313 1309 1309 1310 1311 1313 1314 1314 1316 1319 1320 1318 1322 1326 1330 1334 1338 1342 1346 1350 1353 1357 1361 1366
1434 1427 1421 1415 1409 1402 1395 1389 1381 1376 1373 1368 1362 1356 1350 1344 1336 1327 1320 1317 1314 1313 1312 1312 1313 1314 1315 1316 1319 1320 1322 1325 1327 1330 1332 1336 1340 1344 1347 1350 1354 1359 1364
1431 1426 1419 1413 1407 1401 1395 1389 1383 1377 1372 1367 1362 1357 1351 1345 1338 1331 1325 1319 1315 1314 1313 1313 1313 1313 1313 1314 1316 1318 1320 1322 1324 1327 1330 1334 1338 1341 1345 1348 1352 1357 1361
1429 1423 1417 1412 1406 1400 1394 1388 1383 1378 1373 1368 1363 1357 1352 1347 1341 1335 1329 1324 1320 1317 1315 1313 1312 1311 1311 1312 1312 1314 1316 1317 1320 1323 1326 1331 1335 1339 1343 1347 1350 1354 1358
1427 1422 1416 1411 1405 1399 1393 1388 1383 1378 1374 1369 1364 1358 1353 1347 1340 1335 1331 1327 1323 1320 1317 1314 1312 1310 1309 1309 1309 1309 1310 1313 1316 1319 1323 1328 1333 1336 1340 1344 1347 1351 1355
1425 1420 1415 1410 1404 1399 1394 1389 1384 1379 1375 1371 1366 1361 1356 1350 1344 1338 1333 1329 1325 1321 1318 1315 1312 1310 1308 1307 1307 1307 1307 1309 1312 1316 1319 1324 1328 1333 1337 1342 1346 1350 1353
1424 1419 1414 1409 1404 1399 1395 1390 1385 1381 1377 1373 1368 1364 1358 1352 1346 1340 1335 1331 1326 1322 1318 1315 1312 1309 1307 1305 1304 1304 1305 1306 1309 1312 1315 1319 1323 1329 1334 1339 1343 1346 1350
1423 1418 1414 1410 1405 1400 1395 1391 1387 1383 1379 1375 1370 1365 1360 1354 1348 1343 1337 1331 1327 1322 1318 1313 1309 1306 1303 1302 1300 1299 1300 1303 1306 1308 1311 1314 1318 1323 1329 1334 1338 1341 1345
1422 1418 1414 1410 1405 1401 1396 1392 1389 1385 1381 1377 1373 1368 1362 1357 1352 1346 1340 1333 1328 1323 1317 1312 1306 1302 1298 1297 1295 1293 1294 1298 1303 1306 1309 1312 1316 1320 1324 1329 1334 1338 1342
1422 1418 1414 1410 1406 1402 1398 1394 1390 1386 1383 1379 1375 1370 1364 1359 1354 1347 1341 1334 1329 1324 1318 1311 1304 1299 1294 1291 1289 1289 1290 1294 1300 1305 1309 1313 1316 1320 1324 1328 1331 1335 1339
1421 1418 1415 1411 1407 1403 1399 1395 1392 1388 1384 1381 1377 1372 1367 1362 1356 1349 1343 1336 1330 1324 1318 1311 1303 1297 1292 1289 1289 1289 1292 1296 1301 1305 1310 1313 1316 1319 1323 1326 1330 1334 1337
Wind_Speed
23 28 33 35 36 36 37 39 41 42 42 44 43 41 39 39 34 33 33 34 34 34 32 32 34 34 35 32 31 30 32 35 39 46 38 32 38 32 28 28 27 22 28
29 34 36 36 37 38 40 39 40 42 43 42 40 37 36 37 34 33 35 37 38 38 36 35 36 34 35 32 32 35 35 37 33 38 34 32 32 35 28 28 27 27 27
36 37 37 36 38 39 39 40 42 43 43 39 35 35 35 39 36 36 38 40 39 38 37 36 36 32 34 33 32 33 34 37 39 36 36 35 33 35 32 29 28 27 24
35 34 35 37 38 39 42 44 43 43 39 36 35 35 38 39 38 38 39 38 36 36 34 34 32 34 34 32 31 34 35 35 37 42 32 33 29 32 32 30 31 28 26
33 34 36 38 40 43 44 43 43 38 36 40 38 37 37 38 37 36 36 37 38 39 38 38 37 34 32 33 31 33 34 38 29 30 32 27 31 30 32 30 28 28 25
32 33 36 39 41 41 42 41 37 35 40 37 37 37 36 34 36 36 37 40 40 40 41 38 35 41 31 30 31 34 37 34 37 37 34 32 28 28 27 25 22 26 25
32 34 37 37 40 41 40 36 35 39 38 39 36 35 36 35 36 36 38 39 40 40 39 37 37 31 29 28 27 27 30 32 30 42 31 34 28 30 31 22 24 22 18
33 35 35 37 40 40 37 35 37 38 39 39 38 35 36 36 36 33 34 36 33 34 35 34 33 29 29 25 26 28 29 26 31 27 28 37 31 25 19 22 25 22 19
34 35 36 38 40 37 35 35 36 37 38 36 33 34 34 36 32 31 32 33 32 32 31 32 29 25 24 23 24 25 24 25 20 20 24 25 30 23 21 23 25 25 20
33 35 36 38 36 34 34 36 36 35 34 31 30 32 30 33 32 37 34 34 34 28 28 26 21 23 21 22 22 24 27 28 17 15 14 20 15 20 24 19 19 21 21
32 36 37 37 31 32 34 34 33 30 29 29 32 31 35 34 40 36 37 37 33 27 26 23 19 18 19 20 21 23 24 22 19 17 17 14 14 22 20 23 19 19 19
34 35 38 33 30 33 34 31 29 28 31 32 33 34 36 37 37 39 38 38 30 24 23 17 15 12 14 15 16 15 17 17 19 21 21 21 17 21 19 23 21 20 17
33 35 35 30 33 33 33 30 29 29 28 33 30 34 35 38 42 43 43 29 20 14 17 14 11 10 10 10 10 13 15 20 21 24 27 22 18 19 19 18 18 18 15
32 34 32 32 31 33 30 28 28 27 29 29 30 33 35 36 40 40 32 22 6 6 10 11 9 8 7 6 7 10 17 18 19 18 22 24 23 20 17 17 18 19 18
31 32 32 30 32 33 29 27 25 23 25 26 25 28 32 33 36 28 25 20 9 6 5 8 10 9 7 6 3 7 20 12 17 19 20 19 17 17 17 17 16 20 24
31 31 31 30 31 31 29 30 24 20 19 19 21 24 26 27 28 21 18 17 11 8 4 5 5 7 8 7 5 3 7 12 14 15 16 16 16 14 14 17 16 20 26
29 31 29 29 29 28 28 27 28 25 18 18 19 22 23 26 27 26 16 6 4 3 2 3 4 6 8 8 7 8 8 10 13 14 14 16 17 15 17 19 19 20 23
27 29 26 27 29 26 25 23 22 22 22 22 22 22 24 27 24 24 23 18 15 8 3 1 2 8 10 11 12 12 12 14 18 19 19 17 17 18 16 18 22 24 23
27 29 26 25 25 22 22 20 20 19 19 20 21 22 26 23 23 22 22 23 21 19 15 10 5 2 6 11 14 16 17 17 21 20 22 22 19 18 18 18 22 21 22
27 27 22 23 23 22 20 20 20 19 19 19 21 24 28 27 27 25 23 20 19 18 15 13 10 7 2 8 8 11 17 19 19 23 23 23 22 21 18 20 19 19 18
27 25 21 22 21 20 19 18 19 19 18 19 20 23 23 25 26 26 23 21 19 18 16 14 11 9 6 2 9 9 11 17 19 22 25 29 27 23 20 22 20 19 13
24 22 20 21 19 19 17 17 18 18 17 18 20 23 24 27 27 28 23 20 20 17 16 15 13 9 7 6 4 11 14 14 18 19 23 26 26 28 25 23 23 21 23
21 20 19 19 19 18 15 16 17 17 17 20 20 22 24 27 28 29 26 22 21 19 18 17 16 12 8 7 8 10 15 19 16 16 21 23 27 27 27 27 23 22 24
19 18 18 18 18 18 16 16 16 16 18 19 21 21 24 26 28 28 26 24 21 22 21 21 18 13 10 7 8 12 16 20 23 18 15 18 19 21 21 24 25 24 28
18 17 17 18 18 18 17 16 14 16 17 19 19 23 24 24 27 31 31 27 25 25 24 24 19 15 10 4 3 9 15 22 23 24 22 21 20 20 21 23 26 25 27
16 15 15 17 17 17 17 17 15 16 17 18 18 19 23 25 27 32 33 27 27 27 27 28 23 20 17 14 10 9 16 21 21 22 21 20 21 23 23 22 22 22 20
Wind_Direction
304 310 314 318 317 313 311 311 311 310 311 310 308 306 303 305 302 301 297 295 292 291 292 283 281 283 282 280 273 274 267 264 265 268 267 266 263 263 256 257 258 258 236
315 318 319 317 312 310 311 313 313 312 312 311 309 306 305 311 308 297 292 292 292 289 289 285 283 285 284 277 274 266 267 263 264 268 269 269 250 251 258 253 251 252 233
319 317 314 311 312 313 314 314 314 314 314 313 312 311 304 309 304 288 290 292 288 286 287 283 280 279 273 271 274 267 263 261 258 262 271 268 254 250 257 258 243 240 239
315 314 314 315 316 316 316 317 317 316 314 318 318 309 301 302 301 293 291 291 288 284 282 285 279 270 272 276 273 263 260 263 260 256 259 259 248 246 249 247 242 235 231
315 316 317 316 317 317 318 318 318 318 316 319 315 310 308 304 302 296 290 286 285 284 283 281 270 272 265 268 267 265 261 255 255 263 254 253 249 240 237 245 229 227 228
319 318 317 318 318 320 320 321 322 317 315 316 315 313 311 306 302 290 284 281 279 279 277 278 277 274 269 265 263 258 256 248 252 250 256 248 247 235 231 212 223 212 212
318 319 320 322 322 324 324 324 325 316 318 317 316 316 313 312 316 306 291 285 280 278 276 276 269 276 273 268 271 265 255 257 261 240 238 241 241 230 230 214 226 216 220
320 321 323 324 327 327 325 330 325 321 320 321 320 319 315 316 320 318 312 298 285 276 272 275 270 270 269 262 269 267 259 261 261 254 248 234 235 231 227 227 218 214 204
323 323 325 326 327 326 328 327 325 325 324 324 324 323 321 320 326 321 319 309 286 275 276 267 266 259 265 255 255 259 260 265 243 242 240 209 224 214 212 216 209 197 185
324 326 326 327 326 326 327 329 328 327 326 328 327 327 327 322 325 324 317 305 296 270 269 267 261 256 259 252 251 249 251 249 229 217 220 198 192 195 199 201 189 190 191
327 327 327 327 327 335 331 331 331 332 330 330 333 331 335 331 328 316 310 302 295 277 263 262 252 250 254 254 249 249 248 243 215 217 214 191 216 202 198 200 197 203 201
329 329 330 330 333 332 333 330 336 336 335 335 337 331 332 329 329 326 313 302 294 265 250 248 241 243 253 253 252 256 226 226 212 214 209 204 195 188 193 198 189 198 205
332 333 333 332 331 333 334 338 338 335 338 339 330 334 335 337 341 339 340 320 279 246 224 223 227 237 250 245 258 248 227 216 227 227 218 204 186 180 188 186 191 203 207
333 336 339 331 334 333 340 344 340 340 339 334 335 339 339 348 348 351 7 22 64 172 205 205 211 218 222 234 257 240 220 214 192 185 183 173 176 180 191 202 207 209 202
334 336 339 338 336 337 343 343 343 343 340 335 339 345 347 351 352 358 11 20 31 132 175 171 202 205 216 238 291 339 177 147 158 150 157 169 183 196 203 205 206 207 205
334 340 337 336 344 340 341 342 352 351 346 348 351 353 355 355 357 4 14 30 45 109 120 183 214 228 232 220 233 237 149 158 173 172 174 181 187 197 199 195 206 206 201
337 340 336 341 341 341 344 347 346 352 360 359 2 1 3 3 6 12 12 10 38 53 90 197 220 231 241 236 229 232 226 212 190 193 194 201 207 204 199 200 203 202 198
341 340 341 341 338 343 344 347 349 349 350 356 7 3 4 6 4 13 21 34 46 55 63 266 261 239 234 241 241 237 231 222 214 214 213 207 202 196 202 204 199 197 199
343 342 341 338 341 345 348 351 350 351 355 2 6 7 7 11 13 17 19 24 24 27 31 35 27 276 228 242 241 233 237 235 218 215 209 205 209 210 200 206 198 201 201
341 341 342 343 348 352 353 353 354 354 2 7 8 11 5 7 14 11 11 15 20 22 18 17 18 16 337 223 223 229 229 227 222 209 208 207 210 216 210 201 199 200 207
339 342 347 351 354 355 354 355 355 356 6 11 14 10 9 13 8 12 12 15 17 16 11 9 6 6 10 320 226 218 210 210 221 223 216 212 214 219 212 202 209 204 225
340 346 351 355 359 359 354 356 360 5 8 11 9 12 12 13 15 16 15 14 14 14 7 3 360 352 347 331 274 220 213 205 210 214 220 225 223 211 204 202 202 218 227
343 347 352 358 5 1 358 2 5 9 12 9 8 9 13 17 17 15 13 8 9 8 5 0 354 343 330 317 280 242 216 204 197 201 210 213 210 204 207 212 219 206 205
346 351 354 358 6 5 4 4 6 8 15 10 7 13 15 15 14 14 12 8 5 7 8 4 357 349 332 309 261 238 216 199 195 185 185 192 183 193 197 206 208 207 206
349 354 356 357 3 5 4 5 6 6 16 11 17 20 15 10 8 12 11 7 6 5 10 9 5 3 3 347 209 197 190 185 185 192 193 190 188 192 191 194 198 207 199
349 351 357 358 0 3 4 6 7 8 6 5 1 9 10 11 9 10 10 8 5 5 10 13 18 29 45 59 79 122 151 164 166 173 178 181 187 189 189 191 199 196 187